When you browse on this site, cookies collect data to enhance your experience and personalize the content and advertising you see.
Visit our Privacy Policy to learn more. By continuing to use the site, you agree to this use of cookies and data.
  • In Österreich
  • Länderverzeichnis
  • Für 7 Tage
  • Wassertemperatur
  • Satellitenkarten
  • Wetterkarte
  • News
  • Widgets
  • user-avatar
    Anmelden

    Stündliche Wetter Myasnikovo

    Heute, 18 Februar, Montag

    Zeit Temperatur Niederschläge Wind Luftdruck Luftfeuchtigkeit
    00:00 -6°C° 0 mm 7 m/S 741 mmHg 77%
    01:00 -7°C° 0 mm 7 m/S 742 mmHg 77%
    02:00 -7°C° 0 mm 7 m/S 743 mmHg 78%
    03:00 -8°C° 0 mm 6 m/S 744 mmHg 78%
    04:00 -8°C° 0 mm 6 m/S 744 mmHg 79%
    05:00 -9°C° 0 mm 6 m/S 745 mmHg 79%
    06:00 -9°C° 0 mm 6 m/S 746 mmHg 80%
    07:00 -10°C° 0 mm 5 m/S 747 mmHg 81%
    08:00 -10°C° 0 mm 5 m/S 748 mmHg 82%
    09:00 -10°C° 0 mm 5 m/S 748 mmHg 81%
    10:00 -10°C° 0 mm 5 m/S 749 mmHg 80%
    11:00 -10°C° 0 mm 5 m/S 750 mmHg 80%
    12:00 -10°C° 0 mm 5 m/S 750 mmHg 79%
    13:00 -8°C° 0 mm 4 m/S 750 mmHg 79%
    14:00 -8°C° 0 mm 4 m/S 751 mmHg 78%
    15:00 -8°C° 0 mm 3 m/S 751 mmHg 81%
    16:00 -9°C° 0 mm 3 m/S 751 mmHg 84%
    17:00 -9°C° 0 mm 2 m/S 752 mmHg 88%
    18:00 -10°C° 0 mm 2 m/S 752 mmHg 89%
    19:00 -9°C° 0 mm 1 m/S 752 mmHg 90%
    20:00 -10°C° 0 mm 1 m/S 752 mmHg 91%
    21:00 -10°C° 0 mm 1 m/S 752 mmHg 90%
    22:00 -10°C° 0 mm 1 m/S 752 mmHg 89%
    23:00 -10°C° 0 mm 1 m/S 752 mmHg 89%

    Morgen, 19 Februar, Dienstag

    Zeit Temperatur Niederschläge Wind Luftdruck Luftfeuchtigkeit
    00:00 -10°C° 0 mm 2 m/S 751 mmHg 87%
    01:00 -12°C° 0 mm 3 m/S 751 mmHg 85%
    02:00 -10°C° 0 mm 3 m/S 750 mmHg 84%
    03:00 -10°C° 0 mm 4 m/S 750 mmHg 82%
    04:00 -11°C° 0 mm 5 m/S 749 mmHg 79%
    05:00 -10°C° 0 mm 5 m/S 748 mmHg 77%
    06:00 -10°C° 0 mm 5 m/S 747 mmHg 78%
    07:00 -10°C° 0 mm 5 m/S 747 mmHg 78%
    08:00 -10°C° 0 mm 5 m/S 746 mmHg 79%
    09:00 -7°C° 0 mm 5 m/S 746 mmHg 79%
    10:00 -6°C° 0 mm 5 m/S 745 mmHg 78%
    11:00 -4°C° 0 mm 5 m/S 745 mmHg 78%
    12:00 -4°C° 0 mm 5 m/S 744 mmHg 80%
    13:00 -2°C° 0 mm 4 m/S 744 mmHg 81%
    14:00 -1°C° 0 mm 4 m/S 744 mmHg 83%
    15:00 -2°C° 0 mm 4 m/S 743 mmHg 84%
    16:00 -2°C° 0 mm 4 m/S 743 mmHg 86%
    17:00 -2°C° 0 mm 4 m/S 742 mmHg 87%
    18:00 -3°C° 0 mm 4 m/S 742 mmHg 87%
    19:00 -3°C° 0 mm 4 m/S 741 mmHg 87%
    20:00 -4°C° 0 mm 4 m/S 741 mmHg 87%
    21:00 -4°C° 0 mm 4 m/S 740 mmHg 88%
    22:00 -4°C° 0 mm 4 m/S 740 mmHg 88%
    23:00 -4°C° 0 mm 5 m/S 739 mmHg 89%

    übermorgen, 20 Februar, Mittwoch

    Zeit Temperatur Niederschläge Wind Luftdruck Luftfeuchtigkeit
    00:00 -4°C° 0 mm 5 m/S 738 mmHg 89%
    01:00 -4°C° 0 mm 5 m/S 738 mmHg 89%
    02:00 -4°C° 0 mm 5 m/S 737 mmHg 90%
    03:00 -2°C° 0.1 mm 5 m/S 736 mmHg 89%
    04:00 -2°C° 0.1 mm 5 m/S 735 mmHg 89%
    05:00 -2°C° 0.1 mm 5 m/S 734 mmHg 89%
    06:00 -1°C° 0.2 mm 5 m/S 734 mmHg 89%
    07:00 -2°C° 0.2 mm 6 m/S 734 mmHg 90%
    08:00 -1°C° 0.2 mm 6 m/S 734 mmHg 90%
    09:00 0°C° 0.1 mm 5 m/S 734 mmHg 91%
    10:00 0°C° 0.1 mm 5 m/S 734 mmHg 91%
    11:00 0°C° 0.1 mm 5 m/S 734 mmHg 91%
    12:00 0°C° 0 mm 5 m/S 734 mmHg 91%
    13:00 0°C° 0 mm 5 m/S 734 mmHg 90%
    14:00 0°C° 0 mm 5 m/S 733 mmHg 89%
    15:00 0°C° 0.1 mm 5 m/S 733 mmHg 88%
    16:00 0°C° 0.1 mm 4 m/S 733 mmHg 87%
    17:00 -1°C° 0.1 mm 4 m/S 733 mmHg 86%
    18:00 -1°C° 0.1 mm 4 m/S 733 mmHg 87%
    19:00 -1°C° 0.1 mm 4 m/S 732 mmHg 88%
    20:00 -1°C° 0.1 mm 4 m/S 732 mmHg 88%
    21:00 -1°C° 0.3 mm 4 m/S 732 mmHg 89%
    22:00 -1°C° 0.3 mm 4 m/S 732 mmHg 89%
    23:00 -1°C° 0.3 mm 4 m/S 732 mmHg 89%

    21 Februar, Donnerstag

    Zeit Temperatur Niederschläge Wind Luftdruck Luftfeuchtigkeit
    00:00 -2°C° 0.1 mm 4 m/S 732 mmHg 89%
    01:00 -4°C° 0.1 mm 4 m/S 732 mmHg 89%
    02:00 -5°C° 0.1 mm 3 m/S 732 mmHg 88%
    03:00 -6°C° 0 mm 3 m/S 732 mmHg 90%
    04:00 -6°C° 0 mm 3 m/S 731 mmHg 91%
    05:00 -6°C° 0 mm 2 m/S 731 mmHg 93%
    06:00 -6°C° 0 mm 2 m/S 732 mmHg 94%
    07:00 -4°C° 0 mm 1 m/S 732 mmHg 94%
    08:00 -4°C° 0 mm 1 m/S 732 mmHg 95%
    09:00 -5°C° 0.1 mm 2 m/S 732 mmHg 93%
    10:00 -5°C° 0.1 mm 3 m/S 733 mmHg 90%
    11:00 -4°C° 0.1 mm 4 m/S 733 mmHg 87%
    12:00 -5°C° 0.1 mm 5 m/S 734 mmHg 87%
    13:00 -6°C° 0.1 mm 6 m/S 735 mmHg 87%
    14:00 -6°C° 0.1 mm 6 m/S 736 mmHg 86%
    15:00 -8°C° 0.2 mm 7 m/S 737 mmHg 85%
    16:00 -9°C° 0.2 mm 7 m/S 738 mmHg 84%
    17:00 -11°C° 0.2 mm 7 m/S 739 mmHg 84%
    18:00 -11°C° 0.1 mm 7 m/S 740 mmHg 82%
    19:00 -12°C° 0.1 mm 7 m/S 741 mmHg 81%
    20:00 -12°C° 0.1 mm 7 m/S 742 mmHg 80%
    21:00 -13°C° 0.1 mm 7 m/S 743 mmHg 80%
    22:00 -13°C° 0.1 mm 7 m/S 744 mmHg 79%
    23:00 -14°C° 0.1 mm 7 m/S 745 mmHg 78%

    22 Februar, Freitag

    Zeit Temperatur Niederschläge Wind Luftdruck Luftfeuchtigkeit
    00:00 -14°C° 0 mm 7 m/S 746 mmHg 78%
    01:00 -15°C° 0 mm 7 m/S 747 mmHg 77%
    02:00 -17°C° 0 mm 7 m/S 747 mmHg 77%
    03:00 -17°C° 0 mm 7 m/S 748 mmHg 76%
    04:00 -17°C° 0 mm 7 m/S 749 mmHg 75%
    05:00 -17°C° 0 mm 6 m/S 749 mmHg 75%
    06:00 -18°C° 0 mm 7 m/S 750 mmHg 74%
    07:00 -17°C° 0 mm 7 m/S 751 mmHg 74%
    08:00 -17°C° 0 mm 7 m/S 752 mmHg 73%
    09:00 -17°C° 0 mm 7 m/S 752 mmHg 72%
    10:00 -15°C° 0 mm 7 m/S 753 mmHg 72%
    11:00 -15°C° 0 mm 8 m/S 753 mmHg 71%
    12:00 -15°C° 0 mm 8 m/S 754 mmHg 71%
    13:00 -13°C° 0 mm 7 m/S 754 mmHg 71%
    14:00 -13°C° 0 mm 7 m/S 754 mmHg 71%
    15:00 -13°C° 0 mm 7 m/S 755 mmHg 73%
    16:00 -14°C° 0 mm 6 m/S 756 mmHg 75%
    17:00 -14°C° 0 mm 6 m/S 756 mmHg 76%
    18:00 -14°C° 0 mm 6 m/S 757 mmHg 78%
    19:00 -14°C° 0 mm 6 m/S 758 mmHg 81%
    20:00 -13°C° 0 mm 5 m/S 759 mmHg 83%
    21:00 -14°C° 0 mm 5 m/S 759 mmHg 84%
    22:00 -14°C° 0 mm 4 m/S 759 mmHg 85%
    23:00 -14°C° 0 mm 4 m/S 760 mmHg 86%

    23 Februar, Samstag

    Zeit Temperatur Niederschläge Wind Luftdruck Luftfeuchtigkeit
    00:00 -15°C° 0 mm 4 m/S 760 mmHg 87%
    01:00 -15°C° 0 mm 3 m/S 760 mmHg 87%
    02:00 -15°C° 0 mm 3 m/S 760 mmHg 88%
    03:00 -15°C° 0 mm 3 m/S 760 mmHg 87%
    04:00 -14°C° 0 mm 2 m/S 760 mmHg 86%
    05:00 -14°C° 0 mm 2 m/S 760 mmHg 85%
    06:00 -13°C° 0 mm 2 m/S 759 mmHg 82%
    07:00 -13°C° 0 mm 3 m/S 759 mmHg 80%
    08:00 -13°C° 0 mm 3 m/S 759 mmHg 77%
    09:00 -10°C° 0 mm 3 m/S 758 mmHg 75%
    10:00 -10°C° 0 mm 4 m/S 758 mmHg 73%
    11:00 -9°C° 0 mm 4 m/S 757 mmHg 71%
    12:00 -9°C° 0.3 mm 4 m/S 756 mmHg 77%
    13:00 -8°C° 0.3 mm 4 m/S 756 mmHg 82%
    14:00 -8°C° 0.3 mm 5 m/S 755 mmHg 88%
    15:00 -8°C° 0.2 mm 4 m/S 755 mmHg 89%
    16:00 -8°C° 0.2 mm 4 m/S 755 mmHg 89%
    17:00 -7°C° 0.2 mm 3 m/S 754 mmHg 90%
    18:00 -7°C° 0 mm 3 m/S 754 mmHg 91%
    19:00 -7°C° 0 mm 3 m/S 754 mmHg 92%
    20:00 -7°C° 0 mm 3 m/S 754 mmHg 92%
    21:00 -7°C° 0 mm 3 m/S 754 mmHg 93%
    22:00 -7°C° 0 mm 3 m/S 753 mmHg 94%
    23:00 -6°C° 0 mm 2 m/S 753 mmHg 94%
    Mehr zeigen